GFSNW_250_rhum_051.txt.gz
RH
45 37 31 38 38 28 28 30 35 43 47 20 13 9 6 5 5 4 7 8 8 10 16 21 19 17 17 21 22 23 31 37 43 38 42 39 38 33 30 24 23 23 25 27
48 40 35 38 34 22 24 26 35 39 48 33 9 10 6 4 4 5 5 8 8 9 14 25 30 23 23 24 25 26 30 34 37 35 31 29 27 24 22 20 18 19 19 23
50 37 40 37 32 19 21 25 31 39 44 38 12 9 8 4 4 5 5 8 8 9 10 18 34 44 36 28 28 30 34 34 33 30 32 30 32 24 20 17 19 18 18 17
49 35 46 37 28 19 22 27 29 38 38 48 20 8 7 4 4 5 6 7 9 9 10 12 16 26 47 56 49 38 38 34 33 40 37 37 33 27 25 27 21 20 18 17
48 40 46 38 24 21 22 29 29 39 39 40 22 7 8 5 4 4 5 8 9 10 10 12 15 22 34 49 60 68 71 59 41 42 40 38 34 30 30 24 25 27 22 22
45 48 50 36 24 24 23 28 31 44 41 42 20 7 7 6 4 4 6 8 10 11 11 13 16 23 26 34 50 62 74 75 79 73 72 57 51 32 32 30 28 24 28 19
47 53 43 34 24 27 28 32 31 40 43 37 27 8 5 6 4 4 5 8 10 12 12 14 14 17 19 24 31 42 46 66 84 76 80 87 70 48 44 41 36 36 28 21
54 51 43 32 29 34 36 31 28 37 37 39 42 8 6 5 4 4 5 8 9 13 14 14 14 14 18 21 22 27 32 38 51 60 70 66 62 69 71 63 34 37 42 30
51 40 44 33 30 36 41 36 31 31 39 42 45 11 7 6 4 4 5 8 9 11 14 15 16 15 17 21 23 24 28 28 29 35 48 59 62 60 68 65 53 56 46 50
42 40 53 42 36 42 41 39 36 33 40 41 47 17 10 7 5 5 5 7 10 12 14 16 18 17 18 22 23 26 27 28 27 28 33 34 53 60 55 67 69 66 65 57
51 54 58 55 41 44 40 38 43 31 36 34 47 26 12 9 7 6 7 8 9 11 13 13 15 18 17 18 20 21 23 24 27 32 32 33 39 53 62 59 69 79 72 63
59 58 68 58 48 48 42 37 45 36 36 28 35 40 29 17 6 7 8 8 10 12 13 14 18 20 23 23 24 30 31 31 31 34 29 30 38 49 62 71 63 66 80 83
62 78 68 63 58 49 48 45 45 42 35 27 30 44 21 11 8 7 8 10 11 13 13 15 17 19 18 21 27 37 44 42 39 39 34 30 31 36 48 65 80 69 67 85
77 88 73 74 63 50 51 51 48 34 30 32 31 40 21 15 7 7 7 9 11 12 14 15 16 19 18 20 26 27 27 30 34 35 28 35 38 36 42 51 70 91 88 84
74 82 78 75 57 57 52 57 48 37 29 31 33 48 52 21 9 9 8 9 11 12 14 14 16 18 23 24 24 19 23 25 28 40 42 42 39 37 34 33 42 70 94 97
83 91 79 64 58 57 47 58 41 40 32 26 33 52 61 30 20 10 8 9 10 12 12 14 15 18 22 24 24 23 24 22 22 27 32 42 56 51 35 32 38 36 54 81
85 86 73 62 55 49 48 46 41 34 32 26 32 46 61 49 33 10 8 9 10 11 12 13 15 16 18 20 21 19 20 19 20 28 39 39 43 53 53 46 44 44 41 52
91 87 70 54 50 40 38 34 31 24 24 30 28 44 56 61 50 40 13 10 10 10 11 12 13 14 16 18 18 19 20 19 21 24 31 35 20 23 40 36 41 43 51 49
100 90 72 56 49 36 32 34 26 19 20 26 29 38 57 66 69 87 56 15 12 11 10 10 12 12 13 15 16 16 13 15 16 20 18 16 13 12 18 24 34 36 35 48
95 88 78 57 55 46 31 32 23 22 19 23 26 36 51 60 54 87 78 43 14 12 11 10 10 11 12 13 16 15 12 14 14 15 14 12 14 18 19 20 28 34 34 43
100 88 81 74 71 53 44 35 30 25 28 23 26 36 42 52 62 66 81 64 34 16 12 10 9 10 10 11 12 13 12 13 13 12 13 12 13 15 16 17 20 30 34 37
99 96 90 87 74 72 57 42 41 40 26 24 27 35 49 52 53 65 77 82 68 17 13 12 12 11 10 11 12 13 12 11 12 12 12 11 11 12 12 20 25 30 34 34
100 100 99 97 83 76 62 50 41 44 37 30 34 41 45 54 54 61 52 76 40 16 14 12 13 12 10 10 12 12 14 11 13 14 12 11 10 12 14 19 21 25 29 36
100 96 100 86 78 72 65 48 45 43 35 42 49 49 38 50 44 52 67 74 68 17 16 12 12 14 12 11 11 12 13 13 11 16 14 12 8 8 13 19 25 26 27 34
100 98 94 90 78 68 55 48 46 49 49 58 65 54 50 47 63 26 45 58 42 17 15 13 10 11 13 12 12 12 13 13 14 16 18 16 11 8 8 16 24 26 26 29
97 95 93 81 75 63 60 46 61 56 47 61 52 47 47 44 58 67 37 28 40 17 13 10 10 9 11 11 11 12 12 13 14 16 18 19 15 12 8 9 17 24 28 30
100 92 88 79 67 64 55 55 67 48 68 58 50 45 44 47 29 62 54 33 19 14 12 8 8 8 9 10 9 11 11 12 14 15 19 20 20 17 14 10 11 16 23 28

GFSNW_250_rhum_054.txt.gz
RH
94 85 77 69 55 41 44 40 28 32 45 44 48 22 6 6 4 4 5 5 6 8 8 9 10 11 14 18 22 22 24 24 46 54 59 77 86 96 82 67 74 59 42 45
94 80 72 71 54 46 45 39 25 36 45 44 50 46 8 6 5 4 4 5 6 8 10 11 13 13 14 16 20 23 26 29 36 39 40 53 47 46 46 48 40 34 30 38
97 81 78 69 51 47 43 34 25 30 46 41 49 40 25 8 5 4 4 6 7 10 12 12 13 17 19 18 19 20 25 26 31 31 36 32 32 27 29 29 27 25 23 24
95 84 80 74 46 49 41 30 23 32 39 40 49 47 55 13 8 5 4 5 6 8 13 16 16 20 27 28 28 24 26 27 31 31 29 31 33 30 28 28 24 23 22 21
90 83 83 72 51 56 39 29 24 28 39 40 45 54 52 35 13 6 4 4 6 8 12 15 20 23 26 34 40 44 39 30 31 35 34 38 38 34 30 28 25 27 23 28
98 88 80 68 53 56 40 27 27 28 36 44 47 51 58 48 15 10 5 4 6 8 10 14 18 21 24 30 36 44 51 60 65 68 55 43 57 34 34 42 36 29 34 25
100 83 88 66 50 54 37 29 26 27 35 47 48 53 60 52 18 11 6 5 5 8 10 14 17 18 20 20 26 35 41 53 73 74 91 99 86 55 58 59 44 37 44 30
99 91 97 74 58 51 39 40 35 34 36 44 48 51 66 58 22 10 5 5 5 8 10 13 16 18 19 22 24 30 35 38 45 57 74 91 90 91 85 87 53 62 73 42
96 95 92 75 60 50 38 39 42 49 44 40 42 46 67 53 16 10 6 5 5 8 9 12 14 19 19 22 21 23 30 32 31 38 40 50 45 67 86 80 72 78 70 51
99 94 93 71 63 44 40 48 47 52 42 35 42 43 55 65 24 10 8 6 6 7 10 12 14 18 21 21 21 22 23 31 32 32 41 32 39 45 52 70 72 69 68 63
100 96 75 70 64 44 51 53 50 57 39 38 42 44 47 67 41 11 7 6 7 8 9 11 13 16 21 22 24 26 25 24 32 37 38 28 33 30 38 46 70 74 70 65
96 90 69 76 60 50 59 56 54 51 41 41 40 39 46 58 81 19 10 10 9 10 10 11 13 14 18 22 24 28 30 28 28 30 31 29 36 37 33 37 47 68 73 65
98 84 76 73 61 65 65 57 52 50 42 44 38 36 40 50 67 55 22 16 9 11 11 12 14 15 16 20 23 23 25 30 32 38 34 37 35 34 38 46 45 50 71 79
87 80 76 69 66 74 63 58 48 50 51 48 44 41 36 47 58 69 45 22 11 9 12 12 14 16 16 17 19 20 22 43 50 36 26 34 34 34 37 39 38 41 55 66
89 88 76 77 81 74 67 60 54 53 51 50 43 41 38 39 50 56 63 52 32 9 10 13 13 15 18 17 16 15 25 24 28 36 36 38 32 42 56 54 43 44 48 55
88 81 95 82 79 73 72 67 55 55 46 44 44 40 33 34 51 62 65 60 35 24 13 11 14 14 16 16 14 19 19 21 22 26 28 37 36 26 35 64 58 67 54 50
86 93 87 82 83 76 82 63 51 56 46 40 44 44 33 32 47 62 62 70 84 39 24 14 12 14 15 16 18 19 22 21 21 26 31 31 32 36 30 34 51 50 64 61
91 88 91 81 79 82 76 55 51 51 48 39 43 40 38 30 45 58 55 69 86 65 51 22 14 14 16 17 17 18 18 17 18 21 25 34 32 22 23 18 31 38 42 52
94 78 82 87 77 64 59 55 52 45 40 34 42 35 36 33 39 57 59 62 69 68 63 38 15 14 16 17 17 17 18 17 17 18 18 19 18 17 16 14 14 22 26 37
96 79 90 83 76 64 58 54 45 47 33 33 32 28 31 32 33 50 48 56 65 70 60 49 22 12 14 15 16 15 16 16 16 16 16 15 14 14 16 11 14 23 24 23
100 90 90 83 78 63 64 52 53 46 41 45 33 32 27 26 36 58 46 66 74 98 82 72 27 16 11 12 14 14 14 14 15 15 16 15 13 12 14 14 16 20 22 25
100 96 78 88 76 73 65 64 60 53 49 45 37 31 30 30 35 52 42 66 68 92 72 91 37 14 11 11 12 12 12 12 12 12 14 15 13 14 16 15 13 15 21 23
100 100 87 94 86 86 82 72 68 66 57 60 57 38 34 32 36 52 53 52 71 61 75 70 28 15 11 9 10 10 11 11 11 11 12 14 15 15 16 12 12 15 17 23
100 100 86 86 92 92 92 82 69 68 73 78 48 38 32 35 42 54 60 73 67 60 100 73 30 15 12 9 8 9 9 10 11 11 11 12 14 17 16 12 10 13 26 33
100 100 100 97 100 100 96 89 84 80 77 69 42 39 34 38 47 66 57 50 96 54 51 48 61 20 11 9 7 7 7 8 9 10 10 11 14 16 19 14 10 9 23 31
100 100 100 100 100 99 100 98 90 89 78 66 47 40 34 46 58 61 63 71 63 58 48 40 28 18 13 8 6 6 6 6 8 8 10 11 12 15 19 19 14 9 11 26
100 100 100 100 95 100 100 100 99 78 79 65 43 36 50 49 54 62 54 83 76 61 27 21 7 9 10 7 4 4 4 4 6 8 8 10 12 14 17 20 19 14 10 10

GFSNW_250_rhum_060.txt.gz
RH
100 96 100 100 100 95 97 89 76 64 78 57 38 45 38 23 20 9 6 5 4 5 6 8 7 6 11 12 12 16 22 34 41 41 42 41 44 45 43 39 34 31 28 26
100 99 100 100 100 93 95 91 68 75 81 56 39 41 40 33 32 12 10 6 5 5 6 8 10 8 10 13 12 14 17 24 32 41 55 69 81 66 60 48 44 44 37 37
100 100 100 100 100 94 90 83 72 76 70 53 37 39 45 42 39 15 13 8 8 6 5 8 11 12 10 12 16 15 16 18 31 37 43 56 54 48 57 54 60 59 57 44
100 100 100 100 99 100 83 78 76 82 65 54 36 37 46 55 50 29 19 11 8 8 7 6 9 12 13 13 18 18 18 20 27 31 38 51 48 43 49 60 53 64 54 55
100 100 100 100 100 99 79 80 76 87 69 50 38 40 57 59 69 48 27 22 12 10 8 7 7 10 13 14 14 18 22 22 24 26 29 36 42 44 45 40 31 29 28 38
100 100 100 100 100 95 76 78 85 79 64 47 39 37 51 59 70 53 42 36 30 15 10 7 7 9 11 13 15 18 23 30 29 29 27 28 40 38 40 42 39 43 48 43
100 100 100 100 100 90 82 79 86 74 67 46 37 39 51 55 80 63 54 40 36 27 13 8 7 8 10 13 17 18 19 25 35 42 41 33 26 29 34 32 33 37 37 33
100 100 100 100 100 86 89 86 83 67 71 47 35 40 44 53 72 57 60 53 46 27 25 14 10 8 9 11 12 15 19 20 25 28 34 37 34 40 58 58 54 45 45 46
100 100 100 100 99 94 95 86 78 65 75 50 37 41 47 52 72 62 61 58 54 43 31 27 17 11 9 11 14 14 17 21 25 30 28 32 38 43 46 45 69 84 81 71
100 100 100 100 98 99 99 86 78 79 83 54 39 43 48 49 64 62 65 65 63 53 44 30 22 16 12 10 12 18 18 19 24 29 29 32 46 65 59 45 53 50 50 58
100 100 100 100 100 100 97 94 71 85 80 55 43 44 52 52 50 62 65 61 65 63 57 42 29 22 16 12 10 12 16 20 22 25 28 30 36 47 55 66 57 45 48 47
100 100 100 100 100 99 100 95 75 82 78 59 48 50 48 53 49 56 55 63 65 66 59 48 35 25 21 23 16 11 14 18 22 25 27 29 32 34 39 46 55 52 39 39
100 100 100 100 100 100 87 92 70 94 87 59 51 52 48 52 55 55 53 65 64 73 64 64 49 33 27 22 23 16 15 18 22 22 25 28 30 33 39 48 44 47 50 41
100 100 100 100 100 100 98 94 84 88 73 56 53 50 50 60 56 61 58 64 68 70 79 67 55 45 35 26 21 22 16 16 17 20 24 28 28 32 38 37 41 40 44 45
100 100 100 100 99 100 100 83 92 89 68 57 50 48 55 64 54 60 55 63 63 68 67 62 62 55 44 33 26 23 22 20 16 17 23 25 22 33 41 38 41 44 43 44
100 100 100 100 100 100 100 94 87 81 63 57 57 57 65 63 51 59 54 63 64 68 82 62 70 57 49 46 41 30 23 20 22 22 21 25 24 23 31 43 46 54 65 70
100 100 100 100 100 100 100 96 80 76 71 65 59 64 70 65 55 68 63 60 65 63 78 66 72 70 53 44 39 37 33 25 18 22 24 24 25 23 21 30 36 41 48 52
100 96 100 100 100 100 100 92 77 72 74 66 66 64 70 62 57 74 70 62 61 59 72 59 57 61 74 46 42 52 40 28 20 17 19 23 22 19 19 20 26 32 31 31
100 100 100 100 100 100 97 83 75 85 78 69 73 63 68 63 74 80 72 57 64 71 71 69 59 59 76 68 57 59 54 36 24 16 14 16 18 21 20 17 17 19 20 24
100 100 100 100 100 95 97 89 99 93 71 78 72 69 73 67 79 77 66 52 58 67 75 72 66 53 86 72 65 81 91 41 28 20 15 12 11 14 16 17 18 17 15 14
100 100 100 100 100 100 100 99 94 80 74 70 61 79 64 62 72 71 57 50 48 59 59 70 79 42 54 46 44 45 79 55 33 23 16 13 10 8 9 13 14 15 15 14
100 100 100 100 100 100 100 99 88 73 67 62 62 68 58 66 64 63 45 49 51 55 62 68 88 58 54 36 28 33 40 41 28 24 18 12 10 8 7 6 8 11 14 13
100 100 100 100 100 100 100 91 73 71 61 60 63 63 64 78 70 65 46 59 60 60 66 78 77 66 57 62 44 41 44 28 18 17 15 11 8 7 6 6 6 7 10 10
100 100 100 100 100 100 97 90 87 78 66 59 58 63 75 72 66 62 53 64 68 64 67 87 73 89 60 60 49 42 41 23 13 12 10 7 6 5 5 5 5 6 8 8
100 100 100 100 100 100 94 91 82 80 67 60 55 59 83 73 57 56 60 55 63 66 64 75 70 81 62 54 57 47 45 17 9 7 6 5 4 4 3 4 4 4 6 7
100 100 100 100 100 100 100 95 88 78 64 57 52 67 97 72 60 74 70 70 71 74 80 77 74 68 52 54 62 48 21 12 8 5 4 3 3 3 3 3 3 3 4 6
100 100 100 100 100 100 98 94 83 72 69 56 76 95 94 63 85 78 72 80 70 78 79 78 80 58 63 52 42 23 10 6 5 4 3 3 3 3 3 3 3 3 4 4

GFSNW_250_rhum_066.txt.gz
RH
88 100 96 83 100 94 100 100 100 100 96 85 83 66 68 56 42 24 16 13 8 7 8 5 7 7 9 10 8 7 9 11 14 15 22 26 29 27 22 19 21 22 22 24
100 100 92 88 88 96 100 100 100 100 97 86 75 64 67 56 41 31 17 13 9 7 9 11 6 8 8 10 12 11 9 9 12 18 16 22 28 28 24 21 20 22 21 22
100 100 93 90 87 100 100 100 100 100 100 87 81 63 68 59 46 34 22 14 12 9 8 11 11 8 9 11 13 14 14 13 13 16 18 22 21 26 32 32 32 26 24 21
100 90 94 90 93 100 100 100 100 100 96 84 81 61 70 56 49 38 30 16 14 14 9 11 14 14 10 9 12 14 15 16 16 13 14 16 26 30 29 37 36 38 36 32
99 76 74 84 100 100 100 100 100 100 95 86 81 67 64 59 50 45 33 29 17 17 14 10 13 18 19 16 13 14 18 21 19 19 18 19 20 22 30 33 32 38 40 43
98 87 75 89 100 100 100 100 100 100 95 86 85 70 61 65 51 49 45 46 30 34 27 16 14 13 19 24 22 15 15 21 28 30 29 29 29 26 27 29 31 36 39 38
98 85 74 93 100 100 100 100 100 100 100 93 91 74 72 61 54 48 51 49 57 62 40 34 23 18 18 20 24 25 20 15 17 23 33 34 39 43 49 48 48 49 46 42
96 82 72 99 100 100 100 100 100 100 100 95 94 74 70 69 58 42 48 49 60 71 71 61 50 26 21 22 25 22 28 26 17 15 20 31 41 40 44 50 60 61 66 66
100 85 80 95 100 100 100 100 100 100 100 100 99 83 78 67 59 42 42 43 51 67 75 68 72 48 34 22 23 25 26 26 28 24 17 19 38 33 35 44 51 50 47 57
100 97 97 97 100 100 100 100 92 100 100 100 100 90 82 74 61 49 42 40 43 52 64 68 78 63 54 43 37 30 27 28 27 26 27 22 26 24 24 29 48 71 66 61
93 93 100 93 96 98 100 100 98 100 100 100 100 89 85 79 63 57 46 44 41 44 50 57 70 82 83 68 39 41 31 27 25 25 31 29 26 22 20 24 30 43 58 55
94 100 100 100 95 91 100 100 93 100 100 100 100 86 91 78 72 66 51 51 39 36 41 48 54 64 71 71 76 57 39 36 33 28 20 38 37 30 26 26 30 34 36 42
75 100 100 100 98 95 100 100 100 100 100 100 100 94 91 84 78 67 56 49 43 40 36 42 50 51 55 74 91 71 57 44 31 35 36 36 34 30 30 29 25 26 33 40
77 86 100 100 99 100 100 100 100 100 100 99 100 99 92 83 85 75 63 53 46 42 41 43 44 48 52 58 67 85 61 42 44 44 41 40 36 31 29 31 28 26 24 28
88 88 98 96 97 100 100 100 100 100 100 100 100 91 95 90 85 75 68 61 55 45 40 46 53 49 52 57 61 62 69 62 43 38 42 25 25 36 37 27 29 29 29 26
78 80 79 95 96 100 100 100 100 100 100 100 98 85 93 96 91 78 75 66 62 51 47 48 50 54 52 55 62 64 83 58 61 38 34 40 29 28 30 35 25 24 31 29
87 82 78 88 93 93 95 99 94 93 100 99 97 93 98 95 91 82 87 70 70 61 51 54 59 65 52 54 54 64 76 60 68 53 45 44 48 39 32 33 32 21 20 31
77 78 79 83 88 92 81 82 80 92 97 97 98 98 98 90 89 89 92 76 71 55 59 64 63 59 53 49 57 65 74 69 81 75 79 60 43 48 37 25 27 25 16 16
78 81 84 86 79 90 89 81 84 91 99 100 98 90 91 90 92 98 99 74 83 71 68 71 63 62 54 54 62 68 68 74 68 84 86 92 72 57 42 28 22 16 17 13
88 81 88 87 96 94 88 83 83 92 100 100 92 79 90 93 98 100 100 81 90 85 77 75 76 64 52 50 60 58 64 64 76 68 68 63 52 41 28 22 22 16 10 7
91 98 90 93 100 96 90 85 92 100 100 98 88 79 78 86 94 98 100 80 88 79 73 76 68 63 51 51 53 49 62 61 68 66 67 57 50 36 19 13 11 11 10 9
100 100 100 91 89 88 92 94 99 100 100 98 89 87 89 98 96 100 100 78 80 81 72 60 66 60 54 56 48 57 68 60 62 58 72 54 42 21 10 8 7 6 5 6
100 100 100 96 100 100 100 100 100 100 100 100 96 86 95 93 94 97 100 87 79 71 62 60 62 68 49 59 51 48 62 60 72 60 72 52 32 15 6 5 4 4 4 4
100 91 100 100 100 100 100 97 100 100 100 100 93 93 98 91 90 100 100 96 78 63 65 63 64 56 46 52 50 51 56 56 54 76 51 41 19 8 4 4 4 4 3 3
86 99 100 100 100 100 100 100 100 100 100 100 94 95 92 97 99 100 100 90 71 65 63 59 48 43 38 50 48 47 57 60 57 66 36 18 8 4 4 3 3 3 3 3
93 100 100 100 100 100 100 100 100 100 100 100 96 97 89 92 100 100 96 81 75 68 54 56 44 44 41 48 42 61 60 69 48 36 16 6 3 3 3 3 2 2 2 2
100 100 100 100 100 100 100 100 100 100 100 97 93 100 91 94 99 100 92 73 75 68 62 51 45 44 41 44 43 53 56 51 48 18 9 3 2 3 2 2 2 2 2 2